Weather History for Wolf Point, MT

Change the Weather History Date:

Sunday, September 15, 2013

  Actual Average Record
Temperature  
Mean Temperature 59 °F -  
Max Temperature 73 °F 74 °F 93 °F (2000)
Min Temperature 45 °F 40 °F 28 °F (1999)
Degree Days  
Heating Degree Days 6    
Cooling Degree Days 0    
Growing Degree Days 9 (Base 50)    
Moisture  
Dew Point 44 °F    
Average Humidity 61    
Maximum Humidity 90    
Minimum Humidity 35    
Precipitation  
Precipitation 0.00 in 0.04 in 0.03 in (2006)
Month to date precipitation 0.81 0.59  
Year to date precipitation 12.45 10.26  
Sea Level Pressure  
Sea Level Pressure 30.21 in    
Wind  
Wind Speed 7 mph (East)    
Max Wind Speed 14 mph    
Max Gust Speed 22 mph    
Visibility 10 miles    
Events      
T = Trace of Precipitation, MM = Missing Value Source: NWS Daily Summary

Daily Weather History Graph

Daily Weather History Graph

Search for Another Location

Airport:

Trip Planner

Search our weather history database for the weather conditions in past years. The results will help you decide how hot, cold, wet, or windy it might be!

Date:

Astronomy

Sep. 15, 2013 Rise Set
Actual Time 6:39 AM MDT 7:14 PM MDT
Civil Twilight 6:08 AM MDT 7:45 PM MDT
Nautical Twilight 5:31 AM MDT 8:22 PM MDT
Astronomical Twilight 4:52 AM MDT 9:00 PM MDT
Moon 4:56 PM MDT (9/15) 2:05 AM MDT (9/15)
Length of Visible Light 13h 36m
Length of Day
12h 34m
Waxing Gibbous, 82% of the Moon is Illuminated
Sep 15
Waxing Gibbous
Sep 19
Full
Sep 26
Last Quarter
Oct 4
New
Oct 11
First Quarter

Hourly Weather History & Observations

Time (MDT) Temp. Windchill Dew Point Humidity Pressure Visibility Wind Dir Wind Speed Gust Speed Precip Events Conditions
12:53 AM 48.9 °F - 39.9 °F 71% 30.17 in 10.0 mi NNE 4.6 mph - N/A   Clear
1:53 AM 48.9 °F - 41.0 °F 74% 30.18 in 10.0 mi ENE 5.8 mph - N/A   Clear
2:53 AM 46.9 °F - 41.0 °F 80% 30.19 in 10.0 mi East 5.8 mph - N/A   Clear
3:53 AM 46.9 °F - 43.0 °F 86% 30.21 in 10.0 mi East 5.8 mph - N/A   Clear
4:53 AM 46.0 °F 43.1 °F 42.1 °F 86% 30.23 in 10.0 mi ENE 5.8 mph - N/A   Clear
5:53 AM 45.0 °F 41.8 °F 42.1 °F 90% 30.24 in 10.0 mi ENE 5.8 mph - N/A   Clear
6:53 AM 45.0 °F 41.2 °F 42.1 °F 90% 30.26 in 10.0 mi ENE 6.9 mph - N/A   Clear
7:53 AM 48.0 °F - 45.0 °F 89% 30.28 in 10.0 mi East 8.1 mph - N/A   Clear
8:53 AM 53.1 °F - 46.0 °F 77% 30.28 in 10.0 mi East 10.4 mph - N/A   Clear
9:53 AM 57.0 °F - 48.0 °F 72% 30.29 in 10.0 mi East 9.2 mph - N/A   Clear
10:53 AM 62.1 °F - 48.9 °F 62% 30.28 in 10.0 mi East 9.2 mph - N/A   Clear
11:53 AM 66.9 °F - 51.1 °F 57% 30.27 in 10.0 mi East 11.5 mph - N/A   Clear
12:53 PM 70.0 °F - 46.0 °F 42% 30.24 in 10.0 mi ESE 13.8 mph 17.3 mph N/A   Clear
1:53 PM 73.0 °F - 46.9 °F 39% 30.22 in 10.0 mi ESE 8.1 mph 21.9 mph N/A   Clear
2:53 PM 73.0 °F - 45.0 °F 37% 30.21 in 10.0 mi Variable 6.9 mph - N/A   Clear
3:53 PM 73.0 °F - 44.1 °F 35% 30.19 in 10.0 mi SE 8.1 mph - N/A   Clear
4:53 PM 72.0 °F - 44.1 °F 37% 30.17 in 10.0 mi SE 8.1 mph - N/A   Clear
5:53 PM 71.1 °F - 44.1 °F 38% 30.17 in 10.0 mi SE 8.1 mph - N/A   Clear
6:53 PM 66.9 °F - 44.1 °F 44% 30.17 in 10.0 mi SE 5.8 mph - N/A   Clear
7:53 PM 61.0 °F - 43.0 °F 52% 30.17 in 10.0 mi ESE 5.8 mph - N/A   Clear
8:53 PM 60.1 °F - 41.0 °F 49% 30.16 in 10.0 mi ESE 8.1 mph - N/A   Clear
9:53 PM 57.9 °F - 39.0 °F 49% 30.15 in 10.0 mi ESE 6.9 mph - N/A   Clear
10:53 PM 53.1 °F - 39.0 °F 59% 30.14 in 10.0 mi East 4.6 mph - N/A   Clear
11:53 PM 53.1 °F - 39.0 °F 59% 30.12 in 10.0 mi ENE 6.9 mph - N/A   Clear